This is the latest recevied weather packets stored in our database for station/object KE8WAY. If no packets are shown the sender has not sent any weather packets the latest 10 day(s).
| Time | Temp. | Humidity | Pressure | Rain* | Wind** | Luminosity | Snow |
|---|---|---|---|---|---|---|---|
| 1777158014 | 11.11° C | 81% | 1014.5 hPa | 0 mm | - | 31 W/m² | - |
| 1777157710 | 11.11° C | 80% | 1014.5 hPa | 0 mm | - | 35 W/m² | - |
| 1777157406 | 11.11° C | 80% | 1014 hPa | 0 mm | - | 38 W/m² | - |
| 1777157102 | 11.11° C | 80% | 1014.2 hPa | 0 mm | - | 41 W/m² | - |
| 1777156797 | 11.11° C | 80% | 1014.1 hPa | 0 mm | - | 49 W/m² | - |
| 1777156492 | 11.67° C | 81% | 1014 hPa | 0 mm | - | 50 W/m² | - |
| 1777156189 | 11.11° C | 80% | 1013.9 hPa | 0 mm | - | 55 W/m² | - |
| 1777155885 | 11.11° C | 80% | 1014 hPa | 0 mm | - | 60 W/m² | - |
| 1777155580 | 11.11° C | 81% | 1014 hPa | 0 mm | - | 67 W/m² | - |
| 1777155278 | 11.11° C | 80% | 1013.7 hPa | 0 mm | - | 65 W/m² | - |
| 1777154975 | 11.11° C | 80% | 1013.9 hPa | 0 mm | - | 74 W/m² | - |
| 1777154672 | 11.67° C | 80% | 1013.7 hPa | 0 mm | - | 80 W/m² | - |
| 1777154369 | 11.11° C | 80% | 1014 hPa | 0 mm | - | 94 W/m² | - |
| 1777154064 | 11.67° C | 80% | 1013.6 hPa | 0 mm | - | 100 W/m² | - |
| 1777153760 | 11.67° C | 81% | 1013.3 hPa | 0 mm | - | 120 W/m² | - |
| 1777153455 | 11.67° C | 82% | 1013.5 hPa | 0 mm | - | 136 W/m² | - |
| 1777153152 | 11.67° C | 81% | 1013.5 hPa | 0 mm | - | 144 W/m² | - |
| 1777152849 | 11.67° C | 81% | 1013.2 hPa | 0 mm | - | 167 W/m² | - |
| 1777152545 | 11.67° C | 82% | 1013.5 hPa | 0 mm | - | 169 W/m² | - |
| 1777152242 | 11.67° C | 82% | 1013.3 hPa | 0 mm | - | 179 W/m² | - |
| 1777151936 | 12.22° C | 82% | 1013.2 hPa | 0 mm | - | 153 W/m² | - |
| 1777151633 | 12.22° C | 81% | 1013.2 hPa | 0 mm | - | 168 W/m² | - |
| 1777151330 | 12.22° C | 80% | 1013 hPa | 0 mm | - | 199 W/m² | - |
| 1777151029 | 12.22° C | 79% | 1013.1 hPa | 0 mm | - | 208 W/m² | - |
| 1777150724 | 12.22° C | 81% | 1012.9 hPa | 0 mm | - | 200 W/m² | - |
* Rain latest hour (hover to see other rain measurements)
** Current wind speed in m/s (hover to see current wind gust speed)